Location: Twentynine Palms Airport
(34.1316°N, 115.9458°W)
Time: 19:34:26
(UTC-07:00)

Amateur Radio Satellites - All Passes

Search period start: 30 June 2016 19:04
Search period end: 01 July 2016 19:04
Location: Twentynine Palms Airport, 34.1316°N, 115.9458°W

Satellite Date Start Highest point End Downlink Frequencies (MHz)
Time Altitude Azimuth
NOAA 18 30 Jun 19:14:26 19:18:53 25° 264° (W) 19:23:24 137.9125
AO-85 30 Jun 19:15:47 19:16:59 11° 105° (ESE) 19:18:11 145.980
CUTE 1.7 + AOD 2 30 Jun 19:20:02 19:23:26 23° 71° (ENE) 19:26:52 437.475
SEEDS 30 Jun 19:20:19 19:23:01 17° 69° (ENE) 19:25:43 437.485
STRAND 1 30 Jun 19:22:39 19:27:16 33° 98° (E) 19:31:50 437.568
CUTE-I 30 Jun 19:34:57 19:38:27 18° 266° (W) 19:41:59 437.470
DOVE 4 30 Jun 19:46:40 19:50:36 33° 262° (W) 19:54:26 437.250
AAUSAT CUBESAT 2 30 Jun 19:51:52 19:55:00 21° 70° (ENE) 19:58:10 437.432
HO-68 30 Jun 19:55:27 20:02:35 79° 73° (ENE) 20:09:46 435.675
M-CUBED/EXP-1 PRIME 30 Jun 19:59:55 20:01:41 14° 65° (ENE) 20:03:29 437.505
SRMSAT 30 Jun 20:03:16 20:06:50 16° 190° (S) 20:10:24 437.500
CUBEBUG 2 30 Jun 20:04:55 20:08:17 24° 71° (ENE) 20:11:44 437.445
GONETS M04 30 Jun 20:20:50 20:26:22 18° 292° (WNW) 20:31:56
ZACube-1 30 Jun 20:21:07 20:23:45 16° 68° (ENE) 20:26:25 437.345
CINEMA 3 30 Jun 20:23:57 20:27:57 47° 261° (W) 20:31:58 145.822/145.860
Oscar 11 30 Jun 20:25:30 20:28:43 21° 69° (ENE) 20:31:56 145.826/435.025
COMPASS 1 30 Jun 20:27:14 20:31:26 75° 77° (ENE) 20:35:40 437.405
Cosmos 2499 30 Jun 20:28:00 20:34:24 24° 290° (WNW) 20:41:06 435.465 / 435.565
CANX-2 30 Jun 20:35:40 20:39:34 34° 262° (W) 20:43:30 2200.000
FUNcube-1 30 Jun 20:36:29 20:39:48 23° 70° (ENE) 20:43:11 145.935
PRISM 30 Jun 20:38:09 20:41:35 26° 97° (E) 20:44:59 437.425
UWE-3 30 Jun 20:46:13 20:50:15 51° 75° (ENE) 20:54:25 435.000/436.395/437.385
AUBIESAT-1 30 Jun 20:51:06 20:54:20 61° 71° (ENE) 20:57:37 437.475
AO-85 30 Jun 20:51:22 20:56:50 84° 300° (WNW) 21:02:09 145.980
RS-15 30 Jun 20:54:13 21:06:40 82° 61° (ENE) 21:18:52 29.354- 29.394
SEEDS 30 Jun 20:54:34 20:58:25 33° 263° (W) 21:02:18 437.485
CUTE 1.7 + AOD 2 30 Jun 20:55:43 20:59:09 23° 264° (W) 21:02:36 437.475
STRAND 1 30 Jun 21:02:06 21:06:13 25° 292° (WNW) 21:10:18 437.568
HUMSAT D 30 Jun 21:12:47 21:14:51 14° 67° (ENE) 21:16:56 437.325/437.525
DELFI C3 30 Jun 21:17:02 21:20:40 33° 73° (ENE) 21:24:19 145.870
AAUSAT CUBESAT 2 30 Jun 21:26:49 21:30:19 25° 264° (W) 21:33:49 437.432
M-CUBED/EXP-1 PRIME 30 Jun 21:33:30 21:36:05 21° 258° (WSW) 21:38:39 437.505
CUBEBUG 2 30 Jun 21:41:40 21:44:51 21° 265° (W) 21:48:05 437.445
HO-68 30 Jun 21:47:02 21:50:53 15° 268° (W) 21:54:47 435.675
ZACube-1 30 Jun 21:55:55 21:59:43 34° 263° (W) 22:03:37 437.345
Oscar 11 30 Jun 22:00:55 22:04:38 28° 263° (W) 22:08:23 145.826/435.025
TIGRISAT 30 Jun 22:07:13 22:10:24 18° 94° (E) 22:13:34 435.000
FUNcube-1 30 Jun 22:12:34 22:15:56 23° 265° (W) 22:19:22 145.935
UNISAT 6 30 Jun 22:12:50 22:16:29 22° 95° (E) 22:20:08 437.425
PRISM 30 Jun 22:13:46 22:16:41 19° 291° (WNW) 22:19:36 437.425
VELOX 1 30 Jun 22:33:36 22:35:18 12° 66° (ENE) 22:37:01 145.980
AO-85 30 Jun 22:35:47 22:38:00 12° 315° (NW) 22:40:12 145.980
YUBILEINY 30 Jun 22:37:49 22:44:41 24° 71° (ENE) 22:51:28 435.215
HUMSAT D 30 Jun 22:46:08 22:50:04 41° 261° (W) 22:54:04 437.325/437.525
50 SAT 30 Jun 22:51:30 22:54:03 18° 70° (ENE) 22:56:37 437.505
ANTELSAT 30 Jun 22:51:44 22:56:23 61° 101° (E) 23:01:02 437.575/2403.000
DELFI C3 30 Jun 22:53:22 22:55:35 14° 266° (W) 22:57:48 145.870
UKube-1 30 Jun 22:59:45 23:02:08 15° 67° (ENE) 23:04:30 .
RS-15 30 Jun 23:08:51 23:17:43 24° 259° (W) 23:26:32 29.354- 29.394
AISAT 30 Jun 23:12:10 23:16:10 36° 72° (ENE) 23:20:12 437.250
ESTCUBE 1 30 Jun 23:18:20 23:22:50 69° 76° (ENE) 23:27:22 437.505/2401.250
DX 1 30 Jun 23:22:53 23:26:49 34° 72° (ENE) 23:30:45 434.975-435.025
NANOSAT C BR1 30 Jun 23:28:05 23:31:18 21° 96° (E) 23:34:30 145.865
QB50P1 30 Jun 23:32:23 23:35:54 25° 96° (E) 23:39:24 145.935-145.965
POPSAT HIP 1 30 Jun 23:35:46 23:39:24 27° 97° (E) 23:43:01 437.405
TIGRISAT 30 Jun 23:42:50 23:47:08 37° 287° (WNW) 23:51:27 435.000
Cosmos 2491 30 Jun 23:43:17 23:51:09 39° 87° (E) 23:58:58 435.465 / 435.565
DUCHIFAT 1 30 Jun 23:46:50 23:50:39 32° 98° (E) 23:54:29 145.980
QB50P2 30 Jun 23:48:26 23:52:30 41° 99° (E) 23:56:32 145.880/145.840
UNISAT 6 30 Jun 23:49:04 23:53:09 30° 289° (WNW) 23:57:14 437.425
POLYITAN 1 30 Jun 23:51:03 23:55:08 42° 99° (E) 23:59:13 437.675
CUBEBUG 1 30 Jun 23:51:46 23:56:06 72° 257° (WSW) 00:00:27 437.445
SO-50 30 Jun 23:56:17 00:00:32 35° 55° (NE) 00:04:39 436.795
Cosmos 2504 01 Jul 00:01:43 00:08:50 27° 71° (ENE) 00:15:39 435.465 / 435.565
VELOX 1 01 Jul 00:07:00 00:11:17 52° 260° (W) 00:15:35 145.980
TISAT 1 01 Jul 00:07:04 00:09:04 13° 67° (ENE) 00:11:04 437.305
50 SAT 01 Jul 00:24:34 00:27:33 23° 264° (W) 00:30:32 437.505
SPROUT 01 Jul 00:29:50 00:34:02 69° 258° (WSW) 00:38:17 437.525
ANTELSAT 01 Jul 00:30:52 00:32:31 12° 295° (WNW) 00:34:11 437.575/2403.000
BUGSAT 1 01 Jul 00:31:24 00:35:23 48° 100° (E) 00:39:26 437.445
YUBILEINY 01 Jul 00:33:18 00:41:59 63° 269° (W) 00:50:39 435.215
UKube-1 01 Jul 00:33:45 00:37:48 40° 261° (W) 00:41:52 .
JAS-2 01 Jul 00:42:58 00:47:42 31° 96° (E) 00:52:14 435.910
PCSat 01 Jul 00:48:08 00:53:00 35° 109° (ESE) 00:57:54 145.827
AISAT 01 Jul 00:49:59 00:52:44 16° 266° (W) 00:55:27 437.250
BEESAT 2 01 Jul 00:59:17 01:00:52 12° 108° (ESE) 01:02:27 435.950
DX 1 01 Jul 01:00:20 01:03:03 16° 265° (W) 01:05:48 434.975-435.025
NANOSAT C BR1 01 Jul 01:03:25 01:06:57 26° 289° (WNW) 01:10:30 145.865
Oscar 19 01 Jul 01:06:15 01:09:33 17° 94° (E) 01:12:49 437.125/150
QB50P1 01 Jul 01:08:12 01:11:31 22° 290° (WNW) 01:14:49 145.935-145.965
POPSAT HIP 1 01 Jul 01:11:48 01:14:59 21° 290° (WNW) 01:18:11 437.405
DUCHIFAT 1 01 Jul 01:23:18 01:26:05 17° 291° (WNW) 01:28:50 145.980
QB50P2 01 Jul 01:25:43 01:27:54 14° 293° (WNW) 01:30:06 145.880/145.840
POLYITAN 1 01 Jul 01:28:23 01:30:32 14° 293° (WNW) 01:32:41 437.675
SO-50 01 Jul 01:37:24 01:40:42 20° 251° (WSW) 01:43:57 436.795
Cosmos 2491 01 Jul 01:39:47 01:47:49 40° 284° (WNW) 01:55:53 435.465 / 435.565
TISAT 1 01 Jul 01:40:24 01:44:19 41° 261° (W) 01:48:16 437.305
Gurwin Techsat 1B 01 Jul 01:44:55 01:48:26 18° 94° (E) 01:51:57 435.225
O/OREOS (USA 219) 01 Jul 01:45:12 01:49:29 45° 105° (ESE) 01:53:46 437.305
SWISSCUBE 01 Jul 01:48:49 01:53:18 41° 72° (ENE) 01:57:49 437.505
BEESAT 3 01 Jul 01:50:55 01:54:48 73° 299° (WNW) 01:58:45 437.485
Cosmos 2504 01 Jul 01:54:06 02:02:41 59° 270° (W) 02:10:48 435.465 / 435.565
BUGSAT 1 01 Jul 02:08:59 02:10:19 11° 293° (WNW) 02:11:41 437.445
BEESAT 01 Jul 02:13:29 02:18:13 70° 75° (ENE) 02:23:00 436.000
ITUPSAT 1 01 Jul 02:16:21 02:21:08 74° 75° (ENE) 02:25:57 437.325
JAS-2 01 Jul 02:28:17 02:32:39 25° 293° (WNW) 02:36:49 435.910
PCSat 01 Jul 02:31:50 02:36:24 27° 305° (NW) 02:40:59 145.827
BEESAT 2 01 Jul 02:34:31 02:38:16 42° 302° (WNW) 02:42:04 435.950
Oscar 19 01 Jul 02:44:09 02:49:02 45° 288° (WNW) 02:53:54 437.125/150
ITAMSAT 1 01 Jul 03:12:42 03:17:42 45° 100° (E) 03:22:40 435.822/435.867
Gurwin Techsat 1B 01 Jul 03:23:29 03:28:34 47° 288° (WNW) 03:33:36 435.225
O/OREOS (USA 219) 01 Jul 03:26:39 03:29:06 14° 301° (WNW) 03:31:32 437.305
SWISSCUBE 01 Jul 03:28:12 03:31:14 17° 266° (W) 03:34:16 437.505
AO-7 01 Jul 03:29:54 03:37:00 30° 98° (E) 03:44:01 29.400- 29.500
AIST 2 01 Jul 03:40:02 03:43:52 40° 114° (ESE) 03:47:44 435.215
KKS-1 01 Jul 03:54:03 03:58:27 83° 255° (WSW) 04:02:54 437.445
MOZHAYETS 4 01 Jul 04:04:52 04:09:27 72° 258° (WSW) 04:14:07
CUBESAT XI-V 01 Jul 04:06:28 04:08:10 12° 65° (ENE) 04:09:51 437.345
STARS 01 Jul 04:18:24 04:22:45 90° 118° (ESE) 04:27:08 437.465
AIST 1 01 Jul 04:25:28 04:29:38 55° 266° (W) 04:33:48
Cosmos 2499 01 Jul 04:30:33 04:36:12 19° 67° (ENE) 04:41:38 435.465 / 435.565
PHONESAT 2.4 01 Jul 04:32:10 04:34:53 29° 147° (SSE) 04:37:35 2401.200-2431.200
GONETS M04 01 Jul 04:35:28 04:43:06 32° 74° (ENE) 04:50:42
ITAMSAT 1 01 Jul 04:53:11 04:56:47 19° 294° (WNW) 05:00:21 435.822/435.867
HORYU 2 01 Jul 05:14:07 05:18:26 43° 100° (E) 05:22:42 437.375
AIST 2 01 Jul 05:19:55 05:22:30 16° 309° (NW) 05:25:06 435.215
AO-7 01 Jul 05:21:54 05:29:56 53° 293° (WNW) 05:37:56 29.400- 29.500
AO-85 01 Jul 05:28:01 05:31:51 28° 53° (NE) 05:35:25 145.980
CUSAT 1 01 Jul 05:31:16 05:33:55 12° 86° (E) 05:36:26 437.405
CUBESAT XI-V 01 Jul 05:40:20 05:44:58 60° 259° (W) 05:49:38 437.345
Cubesat XI-IV 01 Jul 05:43:24 05:45:07 11° 91° (E) 05:46:51 437.490
NOAA 18 01 Jul 05:59:43 06:03:43 20° 95° (E) 06:07:43 137.9125
ISS 01 Jul 06:03:36 06:04:59 12° 127° (SE) 06:06:22 145.825
PHONESAT 2.4 01 Jul 06:08:26 06:11:24 45° 342° (NNW) 06:14:22 2401.200-2431.200
CUTE-I 01 Jul 06:14:26 06:18:53 26° 96° (E) 06:23:16 437.470
DANDE 01 Jul 06:18:19 06:23:22 18° 85° (E) 06:28:13 436.750
Cosmos 2499 01 Jul 06:21:38 06:30:18 78° 266° (W) 06:38:20 435.465 / 435.565
LilacSat-2 01 Jul 06:29:31 06:33:02 32° 98° (E) 06:36:33 437.200
GONETS M04 01 Jul 06:31:49 06:40:01 47° 271° (W) 06:48:14
NOAA 15 01 Jul 06:32:22 06:37:31 55° 101° (E) 06:42:38 137.62
STRAND 1 01 Jul 06:34:54 06:39:26 33° 70° (ENE) 06:43:59 437.568
BRITE-PL 01 Jul 06:44:41 06:48:51 80° 102° (ESE) 06:53:09 437.365/2234.400
HORYU 2 01 Jul 06:52:04 06:54:33 15° 294° (WNW) 06:57:04 437.375
GOMX 1 01 Jul 07:02:54 07:07:06 53° 100° (E) 07:11:31 467.674
CUSAT 1 01 Jul 07:07:35 07:15:26 83° 96° (E) 07:22:01 437.405
AO-85 01 Jul 07:08:51 07:12:04 21° 251° (WSW) 07:15:07 145.980
Cubesat XI-IV 01 Jul 07:20:15 07:25:37 71° 285° (WNW) 07:30:57 437.490
PRISM 01 Jul 07:25:38 07:27:23 12° 67° (ENE) 07:29:08 437.425
HO-68 01 Jul 07:29:12 07:33:45 18° 93° (E) 07:38:16 435.675
ISS 01 Jul 07:37:56 07:41:05 46° 320° (NW) 07:44:14 145.825
NOAA 18 01 Jul 07:39:15 07:44:31 45° 289° (WNW) 07:49:46 137.9125
PHONESAT 2.4 01 Jul 07:45:51 07:48:25 23° 358° (N) 07:50:58 2401.200-2431.200
DOVE 4 01 Jul 07:47:48 07:52:15 78° 102° (ESE) 07:56:59 437.250
CUTE-I 01 Jul 07:54:07 07:58:53 33° 290° (WNW) 08:03:37 437.470
DANDE 01 Jul 07:57:00 08:05:28 86° 277° (W) 08:13:16 436.750
LilacSat-2 01 Jul 08:04:56 08:07:01 14° 291° (WNW) 08:09:06 437.200
NOAA 15 01 Jul 08:13:45 08:16:47 16° 296° (WNW) 08:19:48 137.62
STRAND 1 01 Jul 08:14:26 08:18:34 24° 264° (W) 08:22:44 437.568
COMPASS 1 01 Jul 08:15:11 08:17:41 15° 94° (E) 08:20:11 437.405
Cosmos 2499 01 Jul 08:19:31 08:21:45 11° 284° (WNW) 08:23:57 435.465 / 435.565
CINEMA 3 01 Jul 08:21:18 08:25:51 50° 100° (E) 08:30:34 145.822/145.860
CANX-2 01 Jul 08:24:01 08:28:12 51° 100° (E) 08:32:20 2200.000
UWE-3 01 Jul 08:40:31 08:43:16 16° 93° (E) 08:46:03 435.000/436.395/437.385
SEEDS 01 Jul 08:41:46 08:45:53 50° 99° (E) 08:49:57 437.485
CUTE 1.7 + AOD 2 01 Jul 08:43:20 08:47:37 78° 102° (ESE) 08:51:51 437.475
GOMX 1 01 Jul 08:43:34 08:44:48 11° 293° (WNW) 08:46:02 467.674
CUSAT 1 01 Jul 08:53:33 08:57:45 16° 288° (WNW) 09:01:36 437.405
PRISM 01 Jul 08:58:18 09:02:16 44° 260° (W) 09:06:15 437.425
RS-15 01 Jul 09:07:55 09:12:44 14° 96° (E) 09:17:37 29.354- 29.394
UNISAT 6 01 Jul 09:10:04 09:11:41 12° 65° (ENE) 09:13:18 437.425
AAUSAT CUBESAT 2 01 Jul 09:12:00 09:16:08 63° 101° (E) 09:20:12 437.432
M-CUBED/EXP-1 PRIME 01 Jul 09:14:26 09:17:55 26° 103° (ESE) 09:21:34 437.505
HO-68 01 Jul 09:14:46 09:21:56 71° 288° (WNW) 09:29:04 435.675
PHONESAT 2.4 01 Jul 09:22:36 09:25:29 36° 15° (NNE) 09:28:21 2401.200-2431.200
CUBEBUG 2 01 Jul 09:34:25 09:39:07 84° 281° (W) 09:43:52 437.445
PCSat 01 Jul 09:40:47 09:43:47 15° 49° (NE) 09:46:45 145.827
DANDE 01 Jul 09:44:15 09:48:58 16° 291° (WNW) 09:53:29 436.750
ZACube-1 01 Jul 09:47:09 09:51:41 58° 100° (E) 09:56:12 437.345
ANTELSAT 01 Jul 09:47:13 09:51:02 32° 72° (ENE) 09:54:57 437.575/2403.000
COMPASS 1 01 Jul 09:49:33 09:53:18 33° 287° (WNW) 09:57:02 437.405
Oscar 11 01 Jul 09:51:04 09:55:25 69° 102° (ESE) 09:59:42 145.826/435.025
CINEMA 3 01 Jul 10:00:07 10:02:35 14° 292° (WNW) 10:05:05 145.822/145.860
Cosmos 2491 01 Jul 10:00:11 10:04:29 14° 66° (ENE) 10:08:47 435.465 / 435.565
CANX-2 01 Jul 10:02:11 10:03:32 11° 294° (WNW) 10:04:55 2200.000
FUNcube-1 01 Jul 10:02:55 10:07:31 84° 102° (ESE) 10:12:05 145.935
AUBIESAT-1 01 Jul 10:06:12 10:10:19 89° 276° (W) 10:14:42 437.475
BEESAT 3 01 Jul 10:12:15 10:15:12 20° 53° (NE) 10:18:07 437.485
UWE-3 01 Jul 10:15:28 10:19:50 42° 286° (WNW) 10:24:14 435.000/436.395/437.385
SEEDS 01 Jul 10:19:45 10:21:05 11° 294° (WNW) 10:22:26 437.485
QB50P1 01 Jul 10:23:09 10:24:43 12° 66° (ENE) 10:26:16 145.935-145.965
POPSAT HIP 1 01 Jul 10:26:21 10:28:13 13° 67° (ENE) 10:30:06 437.405
DELFI C3 01 Jul 10:32:37 10:36:36 85° 283° (WNW) 10:40:33 145.870
HUMSAT D 01 Jul 10:33:04 10:37:08 39° 98° (E) 10:41:09 437.325/437.525
DUCHIFAT 1 01 Jul 10:36:21 10:38:46 15° 68° (ENE) 10:41:12 145.980
TIGRISAT 01 Jul 10:37:22 10:41:37 65° 259° (W) 10:45:59 435.000
QB50P2 01 Jul 10:38:13 10:41:14 20° 69° (ENE) 10:44:16 145.880/145.840
POLYITAN 1 01 Jul 10:40:48 10:43:52 20° 69° (ENE) 10:46:56 437.675
UNISAT 6 01 Jul 10:43:42 10:47:52 51° 260° (W) 10:52:09 437.425
M-CUBED/EXP-1 PRIME 01 Jul 10:49:06 10:52:18 23° 293° (WNW) 10:55:39 437.505
JAS-2 01 Jul 10:53:10 10:56:16 13° 61° (ENE) 10:59:16 435.910
BEESAT 2 01 Jul 10:55:57 10:59:33 31° 56° (NE) 11:03:07 435.950
PHONESAT 2.4 01 Jul 10:59:11 11:02:07 43° 210° (SSW) 11:05:04 2401.200-2431.200
HO-68 01 Jul 11:06:34 11:08:22 11° 305° (NW) 11:10:11 435.675
RS-15 01 Jul 11:11:44 11:22:57 77° 114° (ESE) 11:34:52 29.354- 29.394
ESTCUBE 1 01 Jul 11:15:33 11:18:46 19° 95° (E) 11:21:57 437.505/2401.250
BUGSAT 1 01 Jul 11:18:23 11:21:18 20° 70° (ENE) 11:24:13 437.445
PCSat 01 Jul 11:22:19 11:27:44 74° 246° (WSW) 11:33:06 145.827
ANTELSAT 01 Jul 11:24:56 11:27:48 17° 266° (W) 11:30:43 437.575/2403.000
ZACube-1 01 Jul 11:25:47 11:27:25 12° 294° (WNW) 11:29:03 437.345
YUBILEINY 01 Jul 11:34:08 11:41:26 31° 85° (E) 11:48:46 435.215
CUBEBUG 1 01 Jul 11:44:28 11:48:08 26° 97° (E) 11:51:46 437.445
BEESAT 3 01 Jul 11:49:27 11:52:52 28° 248° (WSW) 11:56:15 437.485
NANOSAT C BR1 01 Jul 11:51:00 11:55:06 58° 260° (W) 11:59:14 145.865
Cosmos 2491 01 Jul 11:53:46 12:02:31 86° 84° (E) 12:11:16 435.465 / 435.565
QB50P1 01 Jul 11:56:00 12:00:02 47° 260° (W) 12:04:05 145.935-145.965
50 SAT 01 Jul 11:56:35 11:59:59 35° 98° (E) 12:03:20 437.505
O/OREOS (USA 219) 01 Jul 11:58:44 12:03:03 47° 68° (ENE) 12:07:23 437.305
POPSAT HIP 1 01 Jul 11:59:36 12:03:35 43° 261° (W) 12:07:35 437.405
VELOX 1 01 Jul 12:00:48 12:04:53 37° 99° (E) 12:08:57 145.980
AIST 2 01 Jul 12:07:08 12:07:58 10° 47° (NE) 12:08:47 435.215
HUMSAT D 01 Jul 12:09:59 12:12:22 15° 292° (WNW) 12:14:45 437.325/437.525
DUCHIFAT 1 01 Jul 12:10:19 12:14:08 35° 262° (W) 12:17:59 145.980
QB50P2 01 Jul 12:13:15 12:16:49 27° 263° (W) 12:20:26 145.880/145.840
POLYITAN 1 01 Jul 12:15:56 12:19:28 27° 263° (W) 12:23:03 437.675
Oscar 19 01 Jul 12:19:48 12:23:12 18° 66° (ENE) 12:26:35 437.125/150
SPROUT 01 Jul 12:19:53 12:23:29 26° 97° (E) 12:27:04 437.525
UKube-1 01 Jul 12:24:19 12:28:24 41° 100° (E) 12:32:28 .
JAS-2 01 Jul 12:32:45 12:40:26 81° 75° (ENE) 12:47:25 435.910
BEESAT 2 01 Jul 12:34:30 12:37:06 17° 250° (WSW) 12:39:42 435.950
Cosmos 2504 01 Jul 12:35:57 12:41:54 23° 81° (E) 12:48:05 435.465 / 435.565
AISAT 01 Jul 12:41:50 12:46:12 65° 284° (WNW) 12:50:33 437.250
DX 1 01 Jul 12:50:15 12:54:34 72° 284° (WNW) 12:58:53 434.975-435.025
ESTCUBE 1 01 Jul 12:51:37 12:55:35 31° 289° (WNW) 12:59:31 437.505/2401.250
BUGSAT 1 01 Jul 12:53:14 12:56:30 24° 263° (W) 12:59:48 437.445
Gurwin Techsat 1B 01 Jul 13:02:28 13:06:19 21° 66° (ENE) 13:10:09 435.225
JUGNU 01 Jul 13:04:52 13:07:34 13° 166° (SSE) 13:10:16 437.505
CUBEBUG 1 01 Jul 13:20:57 13:24:14 21° 290° (WNW) 13:27:31 437.445
RS-15 01 Jul 13:26:47 13:36:38 31° 318° (NW) 13:46:58 29.354- 29.394
TISAT 1 01 Jul 13:27:47 13:31:42 37° 99° (E) 13:35:37 437.305
YUBILEINY 01 Jul 13:29:30 13:37:47 48° 282° (WNW) 13:46:12 435.215
50 SAT 01 Jul 13:32:00 13:33:16 12° 292° (WNW) 13:34:33 437.505
VELOX 1 01 Jul 13:38:18 13:41:01 16° 292° (WNW) 13:43:43 145.980
O/OREOS (USA 219) 01 Jul 13:40:06 13:41:58 12° 261° (W) 13:43:51 437.305
AIST 2 01 Jul 13:42:45 13:46:54 71° 243° (WSW) 13:51:01 435.215
Cosmos 2491 01 Jul 13:53:39 13:58:07 15° 281° (W) 14:02:33 435.465 / 435.565
SWISSCUBE 01 Jul 13:54:15 13:56:47 14° 93° (E) 13:59:18 437.505
SPROUT 01 Jul 13:55:59 13:59:15 22° 290° (WNW) 14:02:32 437.525
Oscar 19 01 Jul 13:57:12 14:02:07 46° 260° (W) 14:07:03 437.125/150
UKube-1 01 Jul 14:01:46 14:04:03 14° 293° (WNW) 14:06:20 .
SO-50 01 Jul 14:06:46 14:10:54 28° 112° (ESE) 14:15:04 436.795
ISS 01 Jul 14:08:36 14:11:34 31° 37° (NE) 14:14:32 145.825
BEESAT 01 Jul 14:18:00 14:21:51 24° 96° (E) 14:25:41 436.000
ITUPSAT 1 01 Jul 14:21:13 14:25:11 25° 96° (E) 14:29:06 437.325
JAS-2 01 Jul 14:21:25 14:25:45 16° 267° (W) 14:29:58 435.910
AO-7 01 Jul 14:25:10 14:32:09 31° 61° (ENE) 14:39:08 29.400- 29.500
Cosmos 2504 01 Jul 14:26:22 14:34:23 64° 279° (W) 14:43:00 435.465 / 435.565
ITAMSAT 1 01 Jul 14:26:54 14:31:52 47° 72° (ENE) 14:36:52 435.822/435.867
Gurwin Techsat 1B 01 Jul 14:40:54 14:45:54 42° 261° (W) 14:50:56 435.225
JUGNU 01 Jul 14:51:42 14:55:53 20° 176° (S) 15:00:03 437.505
TISAT 1 01 Jul 15:04:36 15:07:01 15° 292° (WNW) 15:09:25 437.305
SWISSCUBE 01 Jul 15:30:11 15:34:47 48° 287° (WNW) 15:39:21 437.505
ISS 01 Jul 15:45:29 15:47:50 18° 232° (SW) 15:50:10 145.825
SO-50 01 Jul 15:47:01 15:51:17 30° 306° (NW) 15:55:35 436.795
KKS-1 01 Jul 15:49:12 15:52:51 24° 97° (E) 15:56:30 437.445
RS-15 01 Jul 15:50:17 15:55:02 13° 352° (N) 15:59:50 29.354- 29.394
BEESAT 01 Jul 15:55:28 15:59:34 29° 290° (WNW) 16:03:39 436.000
ITUPSAT 1 01 Jul 15:58:52 16:02:55 28° 290° (WNW) 16:06:56 437.325
MOZHAYETS 4 01 Jul 16:03:52 16:08:07 35° 98° (E) 16:12:19
ITAMSAT 1 01 Jul 16:08:11 16:11:31 17° 266° (W) 16:14:52 435.822/435.867
HORYU 2 01 Jul 16:08:52 16:12:31 26° 70° (ENE) 16:16:11 437.375
STARS 01 Jul 16:12:10 16:15:34 21° 96° (E) 16:18:57 437.465
SRMSAT 01 Jul 16:13:09 16:16:54 17° 171° (S) 16:20:38 437.500
AO-7 01 Jul 16:16:23 16:24:26 54° 257° (WSW) 16:32:36 29.400- 29.500
JUGNU 01 Jul 16:40:11 16:44:14 19° 186° (S) 16:48:17 437.505
AIST 1 01 Jul 16:50:25 16:54:45 80° 277° (W) 16:59:03
Cubesat XI-IV 01 Jul 17:01:25 17:04:17 15° 64° (ENE) 17:07:08 437.490
Cosmos 2499 01 Jul 17:03:45 17:08:14 16° 78° (ENE) 17:12:50 435.465 / 435.565
NOAA 18 01 Jul 17:22:14 17:26:46 27° 67° (ENE) 17:31:19 137.9125
KKS-1 01 Jul 17:25:42 17:29:17 25° 290° (WNW) 17:32:53 437.445
GONETS M04 01 Jul 17:31:39 17:39:38 42° 88° (E) 17:47:35
CUTE-I 01 Jul 17:32:36 17:37:11 30° 69° (ENE) 17:41:48 437.470
CUBESAT XI-V 01 Jul 17:40:44 17:45:08 43° 99° (E) 17:49:30 437.345
MOZHAYETS 4 01 Jul 17:41:45 17:44:59 19° 292° (WNW) 17:48:12
HORYU 2 01 Jul 17:45:27 17:48:58 23° 264° (W) 17:52:32 437.375
STARS 01 Jul 17:48:07 17:51:51 27° 290° (WNW) 17:55:35 437.465
NOAA 15 01 Jul 17:48:36 17:53:49 62° 74° (ENE) 17:59:01 137.62
CUSAT 1 01 Jul 17:49:46 17:52:12 21° 74° (ENE) 17:54:21 437.405
BRITE-PL 01 Jul 17:51:20 17:56:18 62° 76° (ENE) 18:00:54 437.365/2234.400
SRMSAT 01 Jul 18:01:09 18:05:24 20° 181° (S) 18:09:38 437.500
RS-15 01 Jul 18:06:27 18:14:56 20° 30° (NNE) 18:23:24 29.354- 29.394
GOMX 1 01 Jul 18:07:40 18:11:53 37° 74° (ENE) 18:15:53 467.674
JUGNU 01 Jul 18:30:41 18:32:32 11° 196° (SSW) 18:34:24 437.505
Cubesat XI-IV 01 Jul 18:38:29 18:43:45 62° 259° (WSW) 18:49:05 437.490
LilacSat-2 01 Jul 18:41:34 18:45:10 44° 261° (W) 18:48:51 437.200
DANDE 01 Jul 18:44:40 18:48:41 44° 76° (ENE) 18:51:47 436.750
DOVE 4 01 Jul 18:50:03 18:54:11 47° 75° (ENE) 18:58:12 437.250
STRAND 1 01 Jul 18:50:24 18:53:13 15° 93° (E) 18:56:01 437.568
